CDT,Max TemperatureF,Mean TemperatureF,Min TemperatureF,Max Dew PointF,MeanDew PointF,Min DewpointF,Max Humidity, Mean Humidity, Min Humidity, Max Sea Level PressureIn, Mean Sea Level PressureIn, Min Sea Level PressureIn, Max VisibilityMiles, Mean VisibilityMiles, Min VisibilityMiles, Max Wind SpeedMPH, Mean Wind SpeedMPH, Max Gust SpeedMPH,PrecipitationIn, CloudCover, Events, WindDirDegrees
2014-3-1,78,63,48,59,55,46,100,78,44,30.00,29.93,29.87,10,7,0,17,5,22,0.00,4,Fog,124
2014-3-2,68,44,21,61,29,14,100,86,62,30.32,30.12,29.94,10,7,1,20,11,32,0.01,8,Rain-Snow-Thunderstorm,333
2014-3-3,32,24,15,21,15,9,80,71,60,30.47,30.37,30.31,10,10,10,22,13,29,0.01,5,Snow,352
2014-3-4,44,35,26,30,26,21,93,75,46,30.33,30.17,30.05,10,10,4,8,2,,0.01,3,,101
2014-3-5,53,40,28,32,30,27,100,71,41,30.18,30.09,30.04,10,8,2,13,2,17,0.00,2,Rain,67
2014-3-6,55,44,32,36,35,32,100,75,47,30.25,30.15,30.05,10,10,4,15,7,21,0.04,5,Rain,328
2014-3-7,64,47,30,41,34,28,100,65,30,30.05,29.97,29.86,10,8,1,18,5,26,0.00,0,,156
2014-3-8,55,46,37,52,42,34,94,82,71,30.30,30.10,29.90,10,9,1,20,8,24,0.01,7,Rain,237
2014-3-9,60,48,35,43,38,34,93,75,48,30.35,30.26,30.19,10,7,4,12,6,,0.00,4,,329
2014-3-10,73,54,35,50,40,34,100,64,27,30.20,30.05,29.88,10,7,0,13,4,18,0.00,1,Fog,189
2014-3-11,77,65,53,54,52,34,94,67,36,29.87,29.69,29.54,10,10,5,22,10,31,0.00,1,,190
2014-3-12,60,50,39,36,27,16,70,42,19,30.28,30.13,29.79,10,10,10,25,17,37,0.00,0,,344
2014-3-13,66,48,30,32,28,23,93,52,19,30.33,30.22,30.07,10,10,10,16,3,24,0.00,0,,181
2014-3-14,69,56,44,50,44,32,82,63,43,30.10,30.04,29.97,10,10,10,18,9,26,0.00,3,,170
2014-3-15,68,60,51,61,55,48,94,86,73,30.00,29.87,29.69,10,8,2,17,6,23,0.81,6,Rain-Thunderstorm,142
2014-3-16,53,47,41,52,40,32,94,78,66,30.05,29.91,29.73,10,10,10,26,11,37,0.01,6,,321
2014-3-17,59,46,33,34,29,19,87,59,22,30.04,29.91,29.75,10,10,10,16,7,24,0.00,1,,313
2014-3-18,77,60,42,50,40,25,76,50,21,29.86,29.68,29.61,10,10,5,29,14,36,0.00,1,,177
2014-3-19,64,53,42,39,33,27,81,48,24,30.22,30.12,29.87,10,10,5,17,9,23,0.00,1,,335
2014-3-20,69,51,33,37,32,21,93,53,16,30.24,30.15,30.02,10,10,10,9,2,21,0.00,0,,163
2014-3-21,78,60,42,55,46,32,82,57,34,30.03,29.92,29.83,10,10,10,23,6,29,0.00,1,,172
2014-3-22,66,60,53,55,51,45,88,73,52,30.09,30.00,29.91,10,10,7,14,5,16,0.00,7,Rain,357
2014-3-23,59,50,42,48,35,30,87,57,36,30.36,30.24,30.10,10,10,4,17,11,28,0.00,5,Rain,5
2014-3-24,64,50,35,37,32,27,87,55,27,30.26,30.16,30.04,10,10,10,10,3,,0.00,0,,58
2014-3-25,60,50,37,37,28,23,81,48,23,30.40,30.29,30.16,10,10,1,15,7,22,0.00,0,,20
2014-3-26,59,48,37,46,35,28,81,57,38,30.24,30.11,29.95,10,10,10,22,7,28,0.01,5,Rain,132
2014-3-27,75,65,55,64,57,46,94,80,61,29.94,29.80,29.69,10,9,2,24,17,29,0.02,7,Rain-Thunderstorm,170
2014-3-28,80,66,51,64,58,43,94,77,51,30.05,29.83,29.76,10,8,2,15,7,24,0.06,4,Rain-Thunderstorm,156
2014-3-29,71,58,44,43,38,28,82,57,20,30.29,30.19,30.05,10,10,7,14,9,21,0.00,0,,346
2014-3-30,77,57,37,43,37,32,93,51,19,30.23,30.13,30.00,10,10,10,18,5,24,0.00,0,,158
2014-3-31,77,66,55,57,51,43,82,62,44,29.99,29.93,29.86,10,10,10,22,14,26,0.00,3,Rain-Thunderstorm,173